Wetterdaten: aktuell Donnerstag, 20.02.2020 06:35
Datum Zeit Temp. I. Temp. 2m Temp. 5cm LF I. Luftf.2m Luftdruck Regen Wind Richtung Richtung Taupunkt Windchill Windben
20.02.2020 06:35 16,6 C -1,0 C -1,7 C 49 % 82 % 1025,0 hPa 0,0 l/m 0,3 km/h (0 Bft) W 270 -3,7 C -1,0 C 0,0 km/h (0 Bft)
20.02.2020 06:34 16,6 C -1,0 C -1,7 C 49 % 82 % 1025,0 hPa 0,0 l/m 0,3 km/h (0 Bft) W 270 -3,7 C -1,0 C 0,0 km/h (0 Bft)
20.02.2020 06:33 16,5 C -1,0 C -1,7 C 49 % 82 % 1025,0 hPa 0,0 l/m 0,3 km/h (0 Bft) W 270 -3,7 C -1,0 C 2,1 km/h (1 Bft)
20.02.2020 06:32 16,5 C -1,0 C -1,7 C 49 % 82 % 1025,0 hPa 0,0 l/m 0,3 km/h (0 Bft) W 270 -3,7 C -1,0 C 2,1 km/h (1 Bft)
20.02.2020 06:31 16,5 C -0,9 C -1,7 C 49 % 82 % 1024,9 hPa 0,0 l/m 0,2 km/h (0 Bft) W 270 -3,6 C -0,9 C 2,5 km/h (1 Bft)
20.02.2020 06:30 16,5 C -0,9 C -1,7 C 49 % 82 % 1024,9 hPa 0,0 l/m 0,2 km/h (0 Bft) W 270 -3,6 C -0,9 C 2,5 km/h (1 Bft)
20.02.2020 06:29 16,5 C -0,9 C -1,7 C 49 % 82 % 1024,9 hPa 0,0 l/m 0,0 km/h (0 Bft) W 270 -3,6 C -0,9 C 0,0 km/h (0 Bft)
20.02.2020 06:28 16,5 C -0,9 C -1,7 C 49 % 82 % 1024,9 hPa 0,0 l/m 0,0 km/h (0 Bft) W 270 -3,6 C -0,9 C 0,0 km/h (0 Bft)
20.02.2020 06:27 16,5 C -0,9 C -1,6 C 49 % 82 % 1024,9 hPa 0,0 l/m 0,0 km/h (0 Bft) W-NW 292 -3,6 C -0,9 C 0,0 km/h (0 Bft)
20.02.2020 06:26 16,5 C -0,9 C -1,6 C 49 % 82 % 1024,9 hPa 0,0 l/m 0,0 km/h (0 Bft) W-NW 292 -3,6 C -0,9 C 0,0 km/h (0 Bft)
20.02.2020 06:25 16,4 C -1,0 C -1,6 C 49 % 82 % 1024,9 hPa 0,0 l/m 0,0 km/h (0 Bft) W-NW 292 -3,7 C -1,0 C 0,0 km/h (0 Bft)
20.02.2020 06:24 16,4 C -1,0 C -1,6 C 49 % 82 % 1024,9 hPa 0,0 l/m 0,0 km/h (0 Bft) W-NW 292 -3,7 C -1,0 C 0,0 km/h (0 Bft)
20.02.2020 06:23 16,4 C -0,9 C -1,6 C 49 % 82 % 1024,9 hPa 0,0 l/m 0,0 km/h (0 Bft) NW 315 -3,6 C -0,9 C 0,0 km/h (0 Bft)
20.02.2020 06:22 16,4 C -0,9 C -1,6 C 49 % 82 % 1024,9 hPa 0,0 l/m 0,0 km/h (0 Bft) NW 315 -3,6 C -0,9 C 0,0 km/h (0 Bft)
20.02.2020 06:21 16,4 C -0,8 C -1,6 C 49 % 82 % 1024,9 hPa 0,0 l/m 0,0 km/h (0 Bft) W 270 -3,5 C -0,8 C 0,0 km/h (0 Bft)
20.02.2020 06:20 16,4 C -0,8 C -1,6 C 49 % 82 % 1024,9 hPa 0,0 l/m 0,0 km/h (0 Bft) W 270 -3,5 C -0,8 C 0,0 km/h (0 Bft)
20.02.2020 06:19 16,4 C -0,8 C -1,5 C 49 % 82 % 1024,9 hPa 0,0 l/m 0,0 km/h (0 Bft) W 270 -3,5 C -0,8 C 0,0 km/h (0 Bft)
20.02.2020 06:18 16,4 C -0,8 C -1,5 C 49 % 82 % 1024,9 hPa 0,0 l/m 0,0 km/h (0 Bft) W 270 -3,5 C -0,8 C 0,0 km/h (0 Bft)
20.02.2020 06:17 16,4 C -0,6 C -1,5 C 49 % 82 % 1024,9 hPa 0,0 l/m 0,0 km/h (0 Bft) NW 315 -3,3 C -0,6 C 0,0 km/h (0 Bft)
20.02.2020 06:16 16,4 C -0,6 C -1,3 C 49 % 82 % 1024,9 hPa 0,0 l/m 0,0 km/h (0 Bft) NW 315 -3,3 C -0,6 C 0,0 km/h (0 Bft)
20.02.2020 06:15 16,4 C -0,8 C -1,3 C 49 % 82 % 1024,9 hPa 0,0 l/m 0,0 km/h (0 Bft) N 360 -3,5 C -0,8 C 0,0 km/h (0 Bft)
20.02.2020 06:14 16,4 C -0,8 C -1,5 C 49 % 82 % 1024,9 hPa 0,0 l/m 0,0 km/h (0 Bft) N 360 -3,5 C -0,8 C 0,0 km/h (0 Bft)
20.02.2020 06:13 16,4 C -0,2 C -1,0 C 49 % 82 % 1024,9 hPa 0,0 l/m 0,0 km/h (0 Bft) W-NW 292 -2,9 C -0,2 C 0,0 km/h (0 Bft)
20.02.2020 06:12 16,4 C -0,2 C -1,0 C 49 % 82 % 1024,9 hPa 0,0 l/m 0,0 km/h (0 Bft) W-NW 292 -2,9 C -0,2 C 0,0 km/h (0 Bft)
20.02.2020 06:11 16,4 C -0,2 C -1,0 C 49 % 82 % 1025,1 hPa 0,0 l/m 0,2 km/h (0 Bft) SW 225 -2,9 C -0,2 C 0,0 km/h (0 Bft)
20.02.2020 06:10 16,4 C -0,2 C -1,0 C 49 % 82 % 1025,1 hPa 0,0 l/m 0,2 km/h (0 Bft) SW 225 -2,9 C -0,2 C 0,0 km/h (0 Bft)
20.02.2020 06:09 16,4 C -0,2 C -1,0 C 49 % 82 % 1025,1 hPa 0,0 l/m 0,3 km/h (0 Bft) W 270 -2,9 C -0,2 C 0,0 km/h (0 Bft)
20.02.2020 06:08 16,4 C -0,2 C -1,0 C 49 % 82 % 1025,1 hPa 0,0 l/m 0,3 km/h (0 Bft) W 270 -2,9 C -0,2 C 0,0 km/h (0 Bft)
20.02.2020 06:07 16,4 C -0,2 C -1,0 C 49 % 82 % 1025,1 hPa 0,0 l/m 0,5 km/h (0 Bft) N-NW 337 -2,9 C -0,2 C 0,0 km/h (0 Bft)
20.02.2020 06:06 16,4 C -0,2 C -1,0 C 49 % 82 % 1025,1 hPa 0,0 l/m 0,5 km/h (0 Bft) N-NW 337 -2,9 C -0,2 C 0,0 km/h (0 Bft)
20.02.2020 06:05 16,4 C -0,2 C -1,0 C 49 % 82 % 1025,1 hPa 0,0 l/m 0,5 km/h (0 Bft) W 270 -2,9 C -0,2 C 0,0 km/h (0 Bft)
20.02.2020 06:04 16,4 C -0,2 C -1,0 C 49 % 82 % 1025,1 hPa 0,0 l/m 0,5 km/h (0 Bft) W 270 -2,9 C -0,2 C 0,0 km/h (0 Bft)
20.02.2020 06:03 16,4 C -0,2 C -1,0 C 49 % 82 % 1025,1 hPa 0,0 l/m 0,5 km/h (0 Bft) W 270 -2,9 C -0,2 C 0,0 km/h (0 Bft)
20.02.2020 06:02 16,4 C -0,2 C -1,0 C 49 % 82 % 1025,1 hPa 0,0 l/m 0,5 km/h (0 Bft) W 270 -2,9 C -0,2 C 0,0 km/h (0 Bft)
20.02.2020 06:01 16,2 C -0,2 C -0,8 C 49 % 82 % 1025,1 hPa 0,0 l/m 0,3 km/h (0 Bft) NW 315 -2,9 C -0,2 C 0,0 km/h (0 Bft)
20.02.2020 06:00 16,2 C -0,2 C -0,8 C 49 % 82 % 1025,1 hPa 0,0 l/m 0,3 km/h (0 Bft) NW 315 -2,9 C -0,2 C 0,0 km/h (0 Bft)
20.02.2020 05:59 16,2 C -0,2 C -0,8 C 49 % 82 % 1025,1 hPa 0,0 l/m 0,3 km/h (0 Bft) NW 315 -2,9 C -0,2 C 2,9 km/h (1 Bft)
20.02.2020 05:58 16,2 C -0,2 C -0,8 C 49 % 82 % 1025,1 hPa 0,0 l/m 0,3 km/h (0 Bft) NW 315 -2,9 C -0,2 C 2,9 km/h (1 Bft)
20.02.2020 05:57 16,2 C -0,2 C -0,8 C 48 % 82 % 1025,1 hPa 0,0 l/m 0,0 km/h (0 Bft) W 270 -2,9 C -0,2 C 0,0 km/h (0 Bft)
20.02.2020 05:56 16,2 C -0,2 C -0,8 C 48 % 82 % 1025,1 hPa 0,0 l/m 0,0 km/h (0 Bft) W 270 -2,9 C -0,2 C 0,0 km/h (0 Bft)
20.02.2020 05:55 16,4 C -0,4 C -0,8 C 49 % 82 % 1025,1 hPa 0,0 l/m 0,0 km/h (0 Bft) W 270 -3,1 C -0,4 C 0,0 km/h (0 Bft)
20.02.2020 05:54 16,4 C -0,4 C -0,8 C 49 % 82 % 1025,1 hPa 0,0 l/m 0,0 km/h (0 Bft) W 270 -3,1 C -0,4 C 0,0 km/h (0 Bft)
20.02.2020 05:53 16,4 C -0,4 C -0,7 C 49 % 82 % 1025,1 hPa 0,0 l/m 0,0 km/h (0 Bft) S 180 -3,1 C -0,4 C 0,0 km/h (0 Bft)
20.02.2020 05:52 16,4 C -0,4 C -0,7 C 49 % 82 % 1025,1 hPa 0,0 l/m 0,0 km/h (0 Bft) S 180 -3,1 C -0,4 C 0,0 km/h (0 Bft)
20.02.2020 05:51 16,4 C -0,4 C -0,7 C 48 % 82 % 1025,0 hPa 0,0 l/m 0,0 km/h (0 Bft) O 90 -3,1 C -0,4 C 0,0 km/h (0 Bft)
20.02.2020 05:50 16,4 C -0,4 C -0,7 C 48 % 82 % 1025,0 hPa 0,0 l/m 0,0 km/h (0 Bft) O 90 -3,1 C -0,4 C 0,0 km/h (0 Bft)
20.02.2020 05:49 16,4 C -0,4 C -0,8 C 48 % 82 % 1025,0 hPa 0,0 l/m 0,0 km/h (0 Bft) N-NO 22 -3,1 C -0,4 C 0,0 km/h (0 Bft)
20.02.2020 05:48 16,4 C -0,4 C -0,8 C 48 % 82 % 1025,0 hPa 0,0 l/m 0,0 km/h (0 Bft) N-NO 22 -3,1 C -0,4 C 0,0 km/h (0 Bft)
20.02.2020 05:47 16,4 C -0,4 C -0,8 C 48 % 82 % 1025,0 hPa 0,0 l/m 0,0 km/h (0 Bft) W-NW 292 -3,1 C -0,4 C 0,0 km/h (0 Bft)
20.02.2020 05:46 16,4 C -0,4 C -0,8 C 48 % 82 % 1025,0 hPa 0,0 l/m 0,0 km/h (0 Bft) W-NW 292 -3,1 C -0,4 C 0,0 km/h (0 Bft)
20.02.2020 05:45 16,4 C -0,4 C -0,8 C 49 % 82 % 1025,0 hPa 0,0 l/m 0,0 km/h (0 Bft) W-SW 247 -3,1 C -0,4 C 0,0 km/h (0 Bft)
20.02.2020 05:44 16,4 C -0,4 C -0,8 C 49 % 82 % 1025,0 hPa 0,0 l/m 0,0 km/h (0 Bft) W-SW 247 -3,1 C -0,4 C 0,0 km/h (0 Bft)
20.02.2020 05:43 16,4 C -0,4 C -0,7 C 49 % 82 % 1025,0 hPa 0,0 l/m 0,2 km/h (0 Bft) W-NW 292 -3,1 C -0,4 C 0,0 km/h (0 Bft)
20.02.2020 05:42 16,4 C -0,4 C -0,7 C 49 % 82 % 1025,0 hPa 0,0 l/m 0,2 km/h (0 Bft) W-NW 292 -3,1 C -0,4 C 0,0 km/h (0 Bft)
20.02.2020 05:41 16,4 C -0,4 C -0,7 C 49 % 82 % 1025,0 hPa 0,0 l/m 0,2 km/h (0 Bft) N 360 -3,1 C -0,4 C 0,0 km/h (0 Bft)
20.02.2020 05:40 16,4 C -0,4 C -0,7 C 49 % 82 % 1025,0 hPa 0,0 l/m 0,2 km/h (0 Bft) N 360 -3,1 C -0,4 C 0,0 km/h (0 Bft)
20.02.2020 05:39 16,4 C -0,4 C -0,7 C 49 % 82 % 1025,0 hPa 0,0 l/m 0,2 km/h (0 Bft) W-NW 292 -3,1 C -0,4 C 0,0 km/h (0 Bft)
20.02.2020 05:38 16,4 C -0,4 C -0,7 C 49 % 82 % 1025,0 hPa 0,0 l/m 0,2 km/h (0 Bft) W-NW 292 -3,1 C -0,4 C 0,0 km/h (0 Bft)
20.02.2020 05:37 16,4 C -0,4 C -0,7 C 49 % 81 % 1025,0 hPa 0,0 l/m 0,2 km/h (0 Bft) S-SO 157 -3,3 C -0,4 C 0,0 km/h (0 Bft)
20.02.2020 05:36 16,4 C -0,4 C -0,7 C 49 % 81 % 1025,0 hPa 0,0 l/m 0,2 km/h (0 Bft) S-SO 157 -3,3 C -0,4 C 0,0 km/h (0 Bft)
20.02.2020 05:35 16,4 C -0,5 C -0,7 C 49 % 81 % 1025,0 hPa 0,0 l/m 0,2 km/h (0 Bft) O 90 -3,3 C -0,5 C 0,0 km/h (0 Bft)
20.02.2020 05:34 16,4 C -0,5 C -0,8 C 49 % 81 % 1025,0 hPa 0,0 l/m 0,2 km/h (0 Bft) O 90 -3,3 C -0,5 C 0,0 km/h (0 Bft)
20.02.2020 05:33 16,4 C -0,6 C -0,8 C 49 % 81 % 1025,0 hPa 0,0 l/m 0,2 km/h (0 Bft) NO 45 -3,4 C -0,6 C 0,0 km/h (0 Bft)
20.02.2020 05:32 16,4 C -0,6 C -0,8 C 49 % 81 % 1025,0 hPa 0,0 l/m 0,2 km/h (0 Bft) NO 45 -3,4 C -0,6 C 0,0 km/h (0 Bft)
20.02.2020 05:31 16,4 C -0,6 C -1,0 C 49 % 81 % 1025,2 hPa 0,0 l/m 0,0 km/h (0 Bft) N-NO 22 -3,4 C -0,6 C 0,0 km/h (0 Bft)
20.02.2020 05:30 16,4 C -0,6 C -1,0 C 49 % 81 % 1025,2 hPa 0,0 l/m 0,0 km/h (0 Bft) N-NO 22 -3,4 C -0,6 C 0,0 km/h (0 Bft)
20.02.2020 05:29 16,4 C -0,8 C -1,0 C 49 % 81 % 1025,2 hPa 0,0 l/m 0,0 km/h (0 Bft) NO 45 -3,6 C -0,8 C 0,0 km/h (0 Bft)
20.02.2020 05:28 16,4 C -0,8 C -1,0 C 49 % 81 % 1025,2 hPa 0,0 l/m 0,0 km/h (0 Bft) NO 45 -3,6 C -0,8 C 0,0 km/h (0 Bft)
20.02.2020 05:27 16,4 C -0,9 C -1,0 C 49 % 81 % 1025,2 hPa 0,0 l/m 0,0 km/h (0 Bft) S-SO 157 -3,7 C -0,9 C 0,0 km/h (0 Bft)
20.02.2020 05:26 16,4 C -0,9 C -1,0 C 49 % 81 % 1025,2 hPa 0,0 l/m 0,0 km/h (0 Bft) S-SO 157 -3,7 C -0,9 C 0,0 km/h (0 Bft)
20.02.2020 05:25 16,4 C -0,9 C -1,0 C 49 % 81 % 1025,2 hPa 0,0 l/m 0,0 km/h (0 Bft) S-SO 157 -3,7 C -0,9 C 0,0 km/h (0 Bft)
20.02.2020 05:24 16,4 C -0,9 C -1,0 C 49 % 81 % 1025,2 hPa 0,0 l/m 0,0 km/h (0 Bft) S-SO 157 -3,7 C -0,9 C 0,0 km/h (0 Bft)
20.02.2020 05:23 16,4 C -0,9 C -1,1 C 49 % 81 % 1025,2 hPa 0,0 l/m 0,0 km/h (0 Bft) SO 135 -3,7 C -0,9 C 0,0 km/h (0 Bft)
20.02.2020 05:22 16,4 C -0,9 C -1,1 C 49 % 81 % 1025,2 hPa 0,0 l/m 0,0 km/h (0 Bft) SO 135 -3,7 C -0,9 C 0,0 km/h (0 Bft)
20.02.2020 05:21 16,5 C -0,9 C -1,1 C 49 % 81 % 1025,2 hPa 0,0 l/m 0,0 km/h (0 Bft) S-SO 157 -3,7 C -0,9 C 0,0 km/h (0 Bft)
20.02.2020 05:20 16,5 C -0,9 C -1,1 C 49 % 81 % 1025,2 hPa 0,0 l/m 0,0 km/h (0 Bft) S-SO 157 -3,7 C -0,9 C 0,0 km/h (0 Bft)
20.02.2020 05:19 16,5 C -0,9 C -1,1 C 49 % 81 % 1025,2 hPa 0,0 l/m 0,0 km/h (0 Bft) S-SO 157 -3,7 C -0,9 C 0,0 km/h (0 Bft)
20.02.2020 05:18 16,5 C -0,9 C -1,1 C 49 % 81 % 1025,2 hPa 0,0 l/m 0,0 km/h (0 Bft) S-SO 157 -3,7 C -0,9 C 0,0 km/h (0 Bft)
20.02.2020 05:17 16,5 C -0,9 C -1,1 C 49 % 81 % 1025,2 hPa 0,0 l/m 0,0 km/h (0 Bft) O 90 -3,7 C -0,9 C 0,0 km/h (0 Bft)
20.02.2020 05:16 16,5 C -0,9 C -1,1 C 49 % 81 % 1025,2 hPa 0,0 l/m 0,0 km/h (0 Bft) O 90 -3,7 C -0,9 C 0,0 km/h (0 Bft)
20.02.2020 05:15 16,5 C -0,9 C -1,1 C 49 % 81 % 1025,2 hPa 0,0 l/m 0,0 km/h (0 Bft) O 90 -3,7 C -0,9 C 0,0 km/h (0 Bft)
20.02.2020 05:14 16,5 C -0,9 C -1,1 C 49 % 81 % 1025,2 hPa 0,0 l/m 0,0 km/h (0 Bft) O 90 -3,7 C -0,9 C 0,0 km/h (0 Bft)
20.02.2020 05:13 16,5 C -0,9 C -1,2 C 49 % 81 % 1025,2 hPa 0,0 l/m 0,0 km/h (0 Bft) SO 135 -3,7 C -0,9 C 0,0 km/h (0 Bft)
20.02.2020 05:12 16,5 C -0,9 C -1,2 C 49 % 81 % 1025,2 hPa 0,0 l/m 0,0 km/h (0 Bft) SO 135 -3,7 C -0,9 C 0,0 km/h (0 Bft)
20.02.2020 05:11 16,5 C -0,9 C -1,2 C 49 % 81 % 1025,1 hPa 0,0 l/m 0,0 km/h (0 Bft) O-SO 112 -3,7 C -0,9 C 0,0 km/h (0 Bft)
20.02.2020 05:10 16,5 C -0,9 C -1,2 C 49 % 81 % 1025,1 hPa 0,0 l/m 0,0 km/h (0 Bft) O-SO 112 -3,7 C -0,9 C 0,0 km/h (0 Bft)
20.02.2020 05:09 16,5 C -1,0 C -1,2 C 49 % 81 % 1025,1 hPa 0,0 l/m 0,0 km/h (0 Bft) O-SO 112 -3,8 C -1,0 C 0,0 km/h (0 Bft)
20.02.2020 05:08 16,5 C -1,0 C -1,2 C 49 % 81 % 1025,1 hPa 0,0 l/m 0,0 km/h (0 Bft) O-SO 112 -3,8 C -1,0 C 0,0 km/h (0 Bft)
20.02.2020 05:07 16,5 C -1,0 C -1,2 C 49 % 81 % 1025,1 hPa 0,0 l/m 0,0 km/h (0 Bft) O-SO 112 -3,8 C -1,0 C 0,0 km/h (0 Bft)
20.02.2020 05:06 16,5 C -1,0 C -1,2 C 49 % 81 % 1025,1 hPa 0,0 l/m 0,0 km/h (0 Bft) O-SO 112 -3,8 C -1,0 C 0,0 km/h (0 Bft)
20.02.2020 05:05 16,5 C -1,0 C -1,2 C 49 % 81 % 1025,1 hPa 0,0 l/m 0,0 km/h (0 Bft) O 90 -3,8 C -1,0 C 0,0 km/h (0 Bft)
20.02.2020 05:04 16,5 C -1,0 C -1,2 C 49 % 81 % 1025,1 hPa 0,0 l/m 0,0 km/h (0 Bft) O 90 -3,8 C -1,0 C 0,0 km/h (0 Bft)
20.02.2020 05:03 16,5 C -1,0 C -1,2 C 50 % 81 % 1025,1 hPa 0,0 l/m 0,0 km/h (0 Bft) W-SW 247 -3,8 C -1,0 C 0,0 km/h (0 Bft)
20.02.2020 05:02 16,5 C -1,0 C -1,2 C 50 % 81 % 1025,1 hPa 0,0 l/m 0,0 km/h (0 Bft) W-SW 247 -3,8 C -1,0 C 0,0 km/h (0 Bft)
20.02.2020 05:01 16,5 C -0,9 C -1,3 C 50 % 80 % 1025,1 hPa 0,0 l/m 0,0 km/h (0 Bft) W-SW 247 -3,9 C -0,9 C 0,0 km/h (0 Bft)
20.02.2020 05:00 16,5 C -0,9 C -1,3 C 50 % 80 % 1025,1 hPa 0,0 l/m 0,0 km/h (0 Bft) W-SW 247 -3,9 C -0,9 C 0,0 km/h (0 Bft)
20.02.2020 04:59 16,5 C -0,9 C -1,2 C 50 % 80 % 1025,1 hPa 0,0 l/m 0,0 km/h (0 Bft) W-SW 247 -3,9 C -0,9 C 0,0 km/h (0 Bft)
20.02.2020 04:58 16,5 C -0,9 C -1,2 C 50 % 80 % 1025,1 hPa 0,0 l/m 0,0 km/h (0 Bft) W-SW 247 -3,9 C -0,9 C 0,0 km/h (0 Bft)
20.02.2020 04:57 16,5 C -0,8 C -1,2 C 50 % 80 % 1025,1 hPa 0,0 l/m 0,0 km/h (0 Bft) W 270 -3,8 C -0,8 C 0,0 km/h (0 Bft)
20.02.2020 04:56 16,5 C -0,8 C -1,2 C 50 % 80 % 1025,1 hPa 0,0 l/m 0,0 km/h (0 Bft) W 270 -3,8 C -0,8 C 0,0 km/h (0 Bft)
20.02.2020 04:55 16,6 C -0,6 C -1,1 C 50 % 80 % 1025,1 hPa 0,0 l/m 0,0 km/h (0 Bft) W 270 -3,6 C -0,6 C 0,0 km/h (0 Bft)
20.02.2020 04:54 16,6 C -0,6 C -1,1 C 50 % 80 % 1025,1 hPa 0,0 l/m 0,0 km/h (0 Bft) W 270 -3,6 C -0,6 C 0,0 km/h (0 Bft)
20.02.2020 04:53 16,5 C -0,5 C -1,1 C 50 % 80 % 1025,1 hPa 0,0 l/m 0,0 km/h (0 Bft) W 270 -3,5 C -0,5 C 0,0 km/h (0 Bft)
20.02.2020 04:52 16,5 C -0,5 C -1,1 C 50 % 80 % 1025,1 hPa 0,0 l/m 0,0 km/h (0 Bft) W 270 -3,5 C -0,5 C 0,0 km/h (0 Bft)
20.02.2020 04:51 16,6 C -0,5 C -1,1 C 50 % 80 % 1025,3 hPa 0,0 l/m 0,0 km/h (0 Bft) NW 315 -3,5 C -0,5 C 0,0 km/h (0 Bft)
20.02.2020 04:50 16,6 C -0,5 C -1,0 C 50 % 80 % 1025,3 hPa 0,0 l/m 0,0 km/h (0 Bft) NW 315 -3,5 C -0,5 C 0,0 km/h (0 Bft)
20.02.2020 04:49 16,6 C -0,5 C -1,1 C 50 % 80 % 1025,3 hPa 0,0 l/m 0,0 km/h (0 Bft) NW 315 -3,5 C -0,5 C 0,0 km/h (0 Bft)
20.02.2020 04:48 16,6 C -0,5 C -1,1 C 50 % 80 % 1025,3 hPa 0,0 l/m 0,0 km/h (0 Bft) NW 315 -3,5 C -0,5 C 0,0 km/h (0 Bft)
20.02.2020 04:47 16,6 C -0,6 C -1,1 C 51 % 80 % 1025,3 hPa 0,0 l/m 0,0 km/h (0 Bft) N-NW 337 -3,6 C -0,6 C 0,0 km/h (0 Bft)
20.02.2020 04:46 16,6 C -0,6 C -1,1 C 51 % 80 % 1025,3 hPa 0,0 l/m 0,0 km/h (0 Bft) N-NW 337 -3,6 C -0,6 C 0,0 km/h (0 Bft)
20.02.2020 04:45 16,5 C -0,8 C -1,1 C 51 % 80 % 1025,3 hPa 0,0 l/m 0,0 km/h (0 Bft) NW 315 -3,8 C -0,8 C 0,0 km/h (0 Bft)
20.02.2020 04:44 16,5 C -0,8 C -1,1 C 51 % 80 % 1025,3 hPa 0,0 l/m 0,0 km/h (0 Bft) NW 315 -3,8 C -0,8 C 0,0 km/h (0 Bft)
20.02.2020 04:43 16,6 C -0,8 C -1,1 C 51 % 80 % 1025,3 hPa 0,0 l/m 0,0 km/h (0 Bft) W 270 -3,8 C -0,8 C 0,0 km/h (0 Bft)
20.02.2020 04:42 16,6 C -0,8 C -1,1 C 51 % 80 % 1025,3 hPa 0,0 l/m 0,0 km/h (0 Bft) W 270 -3,8 C -0,8 C 0,0 km/h (0 Bft)
20.02.2020 04:41 16,6 C -0,6 C -1,1 C 51 % 80 % 1025,3 hPa 0,0 l/m 0,0 km/h (0 Bft) W 270 -3,6 C -0,6 C 0,0 km/h (0 Bft)
20.02.2020 04:40 16,6 C -0,6 C -1,1 C 51 % 80 % 1025,3 hPa 0,0 l/m 0,0 km/h (0 Bft) W 270 -3,6 C -0,6 C 0,0 km/h (0 Bft)
20.02.2020 04:39 16,6 C -0,6 C -1,1 C 51 % 80 % 1025,3 hPa 0,0 l/m 0,0 km/h (0 Bft) NW 315 -3,6 C -0,6 C 0,0 km/h (0 Bft)
20.02.2020 04:38 16,6 C -0,6 C -1,1 C 51 % 80 % 1025,3 hPa 0,0 l/m 0,0 km/h (0 Bft) NW 315 -3,6 C -0,6 C 0,0 km/h (0 Bft)
20.02.2020 04:37 16,6 C -0,6 C -1,0 C 51 % 80 % 1025,3 hPa 0,0 l/m 0,0 km/h (0 Bft) NW 315 -3,6 C -0,6 C 0,0 km/h (0 Bft)
20.02.2020 04:36 16,6 C -0,6 C -1,0 C 51 % 80 % 1025,3 hPa 0,0 l/m 0,0 km/h (0 Bft) NW 315 -3,6 C -0,6 C 0,0 km/h (0 Bft)
20.02.2020 04:35 16,6 C -0,6 C -1,0 C 51 % 80 % 1025,3 hPa 0,0 l/m 0,3 km/h (0 Bft) NW 315 -3,6 C -0,6 C 0,0 km/h (0 Bft)
20.02.2020 04:34 16,6 C -0,6 C -1,0 C 51 % 80 % 1025,3 hPa 0,0 l/m 0,3 km/h (0 Bft) NW 315 -3,6 C -0,6 C 0,0 km/h (0 Bft)
20.02.2020 04:33 16,6 C -0,8 C -1,1 C 51 % 80 % 1025,3 hPa 0,0 l/m 0,3 km/h (0 Bft) W-NW 292 -3,8 C -0,8 C 0,0 km/h (0 Bft)
20.02.2020 04:32 16,6 C -0,8 C -1,1 C 51 % 80 % 1025,3 hPa 0,0 l/m 0,3 km/h (0 Bft) W-NW 292 -3,8 C -0,8 C 0,0 km/h (0 Bft)
20.02.2020 04:31 16,6 C -0,9 C -1,1 C 51 % 80 % 1025,3 hPa 0,0 l/m 0,3 km/h (0 Bft) NW 315 -3,9 C -0,9 C 0,0 km/h (0 Bft)
20.02.2020 04:30 16,6 C -0,9 C -1,1 C 51 % 80 % 1025,3 hPa 0,0 l/m 0,3 km/h (0 Bft) NW 315 -3,9 C -0,9 C 0,0 km/h (0 Bft)
20.02.2020 04:29 16,6 C -1,0 C -1,1 C 51 % 80 % 1025,3 hPa 0,0 l/m 0,3 km/h (0 Bft) W 270 -4,0 C -1,0 C 0,0 km/h (0 Bft)
20.02.2020 04:28 16,6 C -1,0 C -1,2 C 51 % 80 % 1025,3 hPa 0,0 l/m 0,3 km/h (0 Bft) W 270 -4,0 C -1,0 C 0,0 km/h (0 Bft)
20.02.2020 04:27 16,6 C -1,0 C -1,2 C 51 % 80 % 1025,3 hPa 0,0 l/m 0,3 km/h (0 Bft) W 270 -4,0 C -1,0 C 0,0 km/h (0 Bft)
20.02.2020 04:26 16,6 C -1,0 C -1,2 C 51 % 80 % 1025,3 hPa 0,0 l/m 0,3 km/h (0 Bft) W 270 -4,0 C -1,0 C 0,0 km/h (0 Bft)
20.02.2020 04:25 16,6 C -1,0 C -1,3 C 51 % 80 % 1025,3 hPa 0,0 l/m 0,3 km/h (0 Bft) W 270 -4,0 C -1,0 C 2,7 km/h (1 Bft)
20.02.2020 04:24 16,6 C -1,0 C -1,3 C 51 % 80 % 1025,3 hPa 0,0 l/m 0,3 km/h (0 Bft) W 270 -4,0 C -1,0 C 2,7 km/h (1 Bft)
20.02.2020 04:23 16,6 C -1,0 C -1,2 C 51 % 80 % 1025,3 hPa 0,0 l/m 0,0 km/h (0 Bft) W 270 -4,0 C -1,0 C 2,1 km/h (1 Bft)
20.02.2020 04:22 16,6 C -1,0 C -1,2 C 51 % 80 % 1025,3 hPa 0,0 l/m 0,0 km/h (0 Bft) W 270 -4,0 C -1,0 C 2,1 km/h (1 Bft)
20.02.2020 04:21 16,6 C -0,9 C -1,2 C 51 % 80 % 1025,3 hPa 0,0 l/m 0,0 km/h (0 Bft) W 270 -3,9 C -0,9 C 0,0 km/h (0 Bft)
20.02.2020 04:20 16,6 C -0,9 C -1,2 C 51 % 80 % 1025,3 hPa 0,0 l/m 0,0 km/h (0 Bft) W 270 -3,9 C -0,9 C 0,0 km/h (0 Bft)
20.02.2020 04:19 16,6 C -0,9 C -1,2 C 51 % 80 % 1025,3 hPa 0,0 l/m 0,0 km/h (0 Bft) W 270 -3,9 C -0,9 C 0,0 km/h (0 Bft)
20.02.2020 04:18 16,6 C -0,9 C -1,2 C 51 % 80 % 1025,3 hPa 0,0 l/m 0,0 km/h (0 Bft) W 270 -3,9 C -0,9 C 0,0 km/h (0 Bft)
20.02.2020 04:17 16,6 C -0,8 C -1,2 C 51 % 80 % 1025,3 hPa 0,0 l/m 0,0 km/h (0 Bft) NW 315 -3,8 C -0,8 C 0,0 km/h (0 Bft)
20.02.2020 04:16 16,6 C -0,8 C -1,2 C 51 % 80 % 1025,3 hPa 0,0 l/m 0,0 km/h (0 Bft) NW 315 -3,8 C -0,8 C 0,0 km/h (0 Bft)
20.02.2020 04:15 16,7 C -0,8 C -1,2 C 51 % 79 % 1025,3 hPa 0,0 l/m 0,0 km/h (0 Bft) W 270 -4,0 C -0,8 C 0,0 km/h (0 Bft)
20.02.2020 04:14 16,7 C -0,8 C -1,2 C 51 % 79 % 1025,3 hPa 0,0 l/m 0,0 km/h (0 Bft) W 270 -4,0 C -0,8 C 0,0 km/h (0 Bft)
20.02.2020 04:13 16,6 C -0,8 C -1,2 C 51 % 79 % 1025,3 hPa 0,0 l/m 0,0 km/h (0 Bft) NW 315 -4,0 C -0,8 C 0,0 km/h (0 Bft)
20.02.2020 04:12 16,6 C -0,8 C -1,1 C 51 % 79 % 1025,3 hPa 0,0 l/m 0,0 km/h (0 Bft) NW 315 -4,0 C -0,8 C 0,0 km/h (0 Bft)
20.02.2020 04:11 16,7 C -0,6 C -1,1 C 51 % 79 % 1025,5 hPa 0,0 l/m 0,0 km/h (0 Bft) N-NW 337 -3,8 C -0,6 C 0,0 km/h (0 Bft)
20.02.2020 04:10 16,7 C -0,6 C -1,1 C 51 % 79 % 1025,5 hPa 0,0 l/m 0,0 km/h (0 Bft) N-NW 337 -3,8 C -0,6 C 0,0 km/h (0 Bft)
20.02.2020 04:09 16,7 C -0,6 C -1,1 C 51 % 79 % 1025,5 hPa 0,0 l/m 0,5 km/h (0 Bft) W 270 -3,8 C -0,6 C 0,0 km/h (0 Bft)
20.02.2020 04:08 16,7 C -0,6 C -1,1 C 51 % 79 % 1025,5 hPa 0,0 l/m 0,5 km/h (0 Bft) W 270 -3,8 C -0,6 C 0,0 km/h (0 Bft)
20.02.2020 04:07 16,7 C -0,5 C -1,1 C 51 % 79 % 1025,5 hPa 0,0 l/m 0,8 km/h (0 Bft) W 270 -3,7 C -0,5 C 0,0 km/h (0 Bft)
20.02.2020 04:06 16,7 C -0,5 C -1,0 C 51 % 79 % 1025,5 hPa 0,0 l/m 0,8 km/h (0 Bft) W 270 -3,7 C -0,5 C 0,0 km/h (0 Bft)
20.02.2020 04:05 16,7 C -0,4 C -1,0 C 51 % 79 % 1025,5 hPa 0,0 l/m 1,1 km/h (1 Bft) W 270 -3,6 C -0,4 C 0,0 km/h (0 Bft)
20.02.2020 04:04 16,7 C -0,4 C -1,0 C 51 % 79 % 1025,5 hPa 0,0 l/m 1,1 km/h (1 Bft) W 270 -3,6 C -0,4 C 0,0 km/h (0 Bft)
20.02.2020 04:03 16,7 C -0,3 C -0,9 C 51 % 79 % 1025,5 hPa 0,0 l/m 1,4 km/h (1 Bft) W 270 -3,5 C -0,3 C 0,0 km/h (0 Bft)
20.02.2020 04:02 16,7 C -0,3 C -0,9 C 51 % 79 % 1025,5 hPa 0,0 l/m 1,4 km/h (1 Bft) W 270 -3,5 C -0,3 C 0,0 km/h (0 Bft)
20.02.2020 04:01 16,7 C -0,3 C -0,9 C 51 % 79 % 1025,5 hPa 0,0 l/m 1,8 km/h (1 Bft) W 270 -3,5 C -0,3 C 0,0 km/h (0 Bft)
20.02.2020 04:00 16,7 C -0,3 C -0,7 C 51 % 79 % 1025,5 hPa 0,0 l/m 1,8 km/h (1 Bft) W 270 -3,5 C -0,3 C 0,0 km/h (0 Bft)
20.02.2020 03:59 16,7 C -0,3 C -0,7 C 51 % 79 % 1025,5 hPa 0,0 l/m 1,9 km/h (1 Bft) N-NW 337 -3,5 C -0,3 C 4,6 km/h (1 Bft)
20.02.2020 03:58 16,7 C -0,3 C -0,6 C 51 % 79 % 1025,5 hPa 0,0 l/m 1,9 km/h (1 Bft) N-NW 337 -3,5 C -0,3 C 4,6 km/h (1 Bft)
20.02.2020 03:57 16,7 C -0,4 C -0,6 C 51 % 79 % 1025,5 hPa 0,0 l/m 1,8 km/h (1 Bft) W-NW 292 -3,6 C -0,4 C 2,3 km/h (1 Bft)
20.02.2020 03:56 16,7 C -0,4 C -0,7 C 51 % 79 % 1025,5 hPa 0,0 l/m 1,8 km/h (1 Bft) W-NW 292 -3,6 C -0,4 C 2,3 km/h (1 Bft)
20.02.2020 03:55 16,7 C -0,4 C -0,7 C 51 % 79 % 1025,5 hPa 0,0 l/m 1,8 km/h (1 Bft) W 270 -3,6 C -0,4 C 3,6 km/h (1 Bft)
20.02.2020 03:54 16,7 C -0,4 C -0,9 C 51 % 79 % 1025,5 hPa 0,0 l/m 1,8 km/h (1 Bft) W 270 -3,6 C -0,4 C 3,6 km/h (1 Bft)
20.02.2020 03:53 16,7 C -0,5 C -0,9 C 51 % 79 % 1025,5 hPa 0,0 l/m 1,3 km/h (1 Bft) NW 315 -3,7 C -0,5 C 3,8 km/h (1 Bft)
20.02.2020 03:52 16,7 C -0,5 C -0,9 C 51 % 79 % 1025,5 hPa 0,0 l/m 1,3 km/h (1 Bft) NW 315 -3,7 C -0,5 C 3,8 km/h (1 Bft)
20.02.2020 03:51 16,7 C -0,5 C -0,9 C 51 % 79 % 1025,3 hPa 0,0 l/m 1,0 km/h (0 Bft) NW 315 -3,7 C -0,5 C 4,2 km/h (1 Bft)
20.02.2020 03:50 16,7 C -0,5 C -0,9 C 51 % 79 % 1025,3 hPa 0,0 l/m 1,0 km/h (0 Bft) NW 315 -3,7 C -0,5 C 4,2 km/h (1 Bft)
20.02.2020 03:49 16,8 C -0,4 C -0,9 C 51 % 79 % 1025,3 hPa 0,0 l/m 0,6 km/h (0 Bft) NW 315 -3,6 C -0,4 C 3,8 km/h (1 Bft)
20.02.2020 03:48 16,8 C -0,4 C -0,9 C 51 % 79 % 1025,3 hPa 0,0 l/m 0,6 km/h (0 Bft) NW 315 -3,6 C -0,4 C 3,8 km/h (1 Bft)
20.02.2020 03:47 16,8 C -0,3 C -0,9 C 51 % 79 % 1025,3 hPa 0,0 l/m 0,3 km/h (0 Bft) W 270 -3,5 C -0,3 C 2,7 km/h (1 Bft)
20.02.2020 03:46 16,8 C -0,3 C -0,7 C 51 % 79 % 1025,3 hPa 0,0 l/m 0,3 km/h (0 Bft) W 270 -3,5 C -0,3 C 2,7 km/h (1 Bft)
20.02.2020 03:45 16,8 C -0,3 C -0,7 C 51 % 79 % 1025,3 hPa 0,0 l/m 0,5 km/h (0 Bft) W 270 -3,5 C -0,3 C 2,3 km/h (1 Bft)
20.02.2020 03:44 16,8 C -0,3 C -0,6 C 51 % 79 % 1025,3 hPa 0,0 l/m 0,5 km/h (0 Bft) W 270 -3,5 C -0,3 C 2,3 km/h (1 Bft)
20.02.2020 03:43 16,8 C -0,4 C -0,6 C 51 % 79 % 1025,3 hPa 0,0 l/m 0,6 km/h (0 Bft) W-NW 292 -3,6 C -0,4 C 0,0 km/h (0 Bft)
20.02.2020 03:42 16,8 C -0,4 C -0,6 C 51 % 79 % 1025,3 hPa 0,0 l/m 0,6 km/h (0 Bft) W-NW 292 -3,6 C -0,4 C 0,0 km/h (0 Bft)
20.02.2020 03:41 16,8 C -0,3 C -0,6 C 51 % 79 % 1025,3 hPa 0,0 l/m 0,6 km/h (0 Bft) NW 315 -3,5 C -0,3 C 0,0 km/h (0 Bft)
20.02.2020 03:40 16,8 C -0,3 C -0,6 C 51 % 79 % 1025,3 hPa 0,0 l/m 0,6 km/h (0 Bft) NW 315 -3,5 C -0,3 C 0,0 km/h (0 Bft)
20.02.2020 03:39 16,8 C -0,3 C -0,6 C 51 % 78 % 1025,3 hPa 0,0 l/m 0,6 km/h (0 Bft) W 270 -3,7 C -0,3 C 0,0 km/h (0 Bft)
20.02.2020 03:38 16,8 C -0,3 C -0,6 C 51 % 78 % 1025,3 hPa 0,0 l/m 0,6 km/h (0 Bft) W 270 -3,7 C -0,3 C 0,0 km/h (0 Bft)
20.02.2020 03:37 16,8 C -0,1 C -0,6 C 51 % 78 % 1025,3 hPa 0,0 l/m 0,5 km/h (0 Bft) W 270 -3,5 C -0,1 C 0,0 km/h (0 Bft)
20.02.2020 03:36 16,8 C -0,1 C -0,6 C 51 % 78 % 1025,3 hPa 0,0 l/m 0,5 km/h (0 Bft) W 270 -3,5 C -0,1 C 0,0 km/h (0 Bft)
20.02.2020 03:35 16,8 C -0,1 C -0,6 C 51 % 78 % 1025,3 hPa 0,0 l/m 0,3 km/h (0 Bft) W-SW 247 -3,5 C -0,1 C 3,8 km/h (1 Bft)
20.02.2020 03:34 16,8 C -0,1 C -0,6 C 51 % 78 % 1025,3 hPa 0,0 l/m 0,3 km/h (0 Bft) W-SW 247 -3,5 C -0,1 C 3,8 km/h (1 Bft)
20.02.2020 03:33 16,8 C 0,1 C -0,6 C 51 % 78 % 1025,3 hPa 0,0 l/m 0,0 km/h (0 Bft) W-SW 247 -3,3 C 0,1 C 0,0 km/h (0 Bft)
20.02.2020 03:32 16,8 C 0,1 C -0,5 C 51 % 78 % 1025,3 hPa 0,0 l/m 0,0 km/h (0 Bft) W-SW 247 -3,3 C 0,1 C 0,0 km/h (0 Bft)
20.02.2020 03:31 16,8 C 0,1 C -0,5 C 51 % 78 % 1025,6 hPa 0,0 l/m 0,0 km/h (0 Bft) N-NW 337 -3,3 C 0,1 C 0,0 km/h (0 Bft)
20.02.2020 03:30 16,8 C 0,1 C -0,4 C 51 % 78 % 1025,6 hPa 0,0 l/m 0,0 km/h (0 Bft) N-NW 337 -3,3 C 0,1 C 0,0 km/h (0 Bft)
20.02.2020 03:29 16,8 C 0,1 C -0,4 C 51 % 78 % 1025,6 hPa 0,0 l/m 0,0 km/h (0 Bft) N 360 -3,3 C 0,1 C 0,0 km/h (0 Bft)
20.02.2020 03:28 16,8 C 0,1 C -0,4 C 51 % 78 % 1025,6 hPa 0,0 l/m 0,0 km/h (0 Bft) N 360 -3,3 C 0,1 C 0,0 km/h (0 Bft)
20.02.2020 03:27 16,8 C 0,1 C -0,4 C 51 % 78 % 1025,6 hPa 0,0 l/m 0,0 km/h (0 Bft) NW 315 -3,3 C 0,1 C 0,0 km/h (0 Bft)
20.02.2020 03:26 16,8 C 0,1 C -0,4 C 51 % 78 % 1025,6 hPa 0,0 l/m 0,0 km/h (0 Bft) NW 315 -3,3 C 0,1 C 0,0 km/h (0 Bft)
20.02.2020 03:25 16,8 C 0,1 C -0,4 C 51 % 78 % 1025,6 hPa 0,0 l/m 0,0 km/h (0 Bft) W 270 -3,3 C 0,1 C 0,0 km/h (0 Bft)
20.02.2020 03:24 16,8 C 0,1 C -0,4 C 51 % 78 % 1025,6 hPa 0,0 l/m 0,0 km/h (0 Bft) W 270 -3,3 C 0,1 C 0,0 km/h (0 Bft)
20.02.2020 03:23 16,8 C 0,3 C -0,4 C 51 % 78 % 1025,6 hPa 0,0 l/m 0,0 km/h (0 Bft) W 270 -3,1 C 0,3 C 2,3 km/h (1 Bft)
20.02.2020 03:22 16,8 C 0,3 C -0,4 C 51 % 78 % 1025,6 hPa 0,0 l/m 0,0 km/h (0 Bft) W 270 -3,1 C 0,3 C 2,3 km/h (1 Bft)
20.02.2020 03:21 16,8 C 0,5 C -0,4 C 51 % 78 % 1025,6 hPa 0,0 l/m 0,0 km/h (0 Bft) W-SW 247 -2,9 C 0,5 C 0,0 km/h (0 Bft)
20.02.2020 03:20 16,8 C 0,5 C -0,3 C 51 % 78 % 1025,6 hPa 0,0 l/m 0,0 km/h (0 Bft) W-SW 247 -2,9 C 0,5 C 0,0 km/h (0 Bft)
20.02.2020 03:19 16,8 C 0,6 C -0,3 C 51 % 78 % 1025,6 hPa 0,0 l/m 0,0 km/h (0 Bft) W-SW 247 -2,8 C 0,6 C 0,0 km/h (0 Bft)
20.02.2020 03:18 16,8 C 0,6 C -0,3 C 51 % 78 % 1025,6 hPa 0,0 l/m 0,0 km/h (0 Bft) W-SW 247 -2,8 C 0,6 C 0,0 km/h (0 Bft)
20.02.2020 03:17 16,8 C 0,7 C -0,3 C 51 % 78 % 1025,6 hPa 0,0 l/m 0,0 km/h (0 Bft) W 270 -2,7 C 0,7 C 0,0 km/h (0 Bft)
20.02.2020 03:16 16,8 C 0,7 C -0,1 C 51 % 78 % 1025,6 hPa 0,0 l/m 0,0 km/h (0 Bft) W 270 -2,7 C 0,7 C 0,0 km/h (0 Bft)
20.02.2020 03:15 16,8 C 0,7 C -0,1 C 51 % 78 % 1025,6 hPa 0,0 l/m 0,0 km/h (0 Bft) NW 315 -2,7 C 0,7 C 0,0 km/h (0 Bft)
20.02.2020 03:14 16,8 C 0,7 C -0,1 C 51 % 78 % 1025,6 hPa 0,0 l/m 0,0 km/h (0 Bft) NW 315 -2,7 C 0,7 C 0,0 km/h (0 Bft)
20.02.2020 03:13 16,8 C 0,9 C -0,1 C 51 % 78 % 1025,6 hPa 0,0 l/m 0,0 km/h (0 Bft) NW 315 -2,5 C 0,9 C 0,0 km/h (0 Bft)
20.02.2020 03:12 16,8 C 0,9 C 0,0 C 51 % 78 % 1025,6 hPa 0,0 l/m 0,0 km/h (0 Bft) NW 315 -2,5 C 0,9 C 0,0 km/h (0 Bft)
20.02.2020 03:11 16,8 C 0,9 C 0,0 C 51 % 78 % 1025,8 hPa 0,0 l/m 0,0 km/h (0 Bft) NW 315 -2,5 C 0,9 C 0,0 km/h (0 Bft)
20.02.2020 03:10 16,8 C 0,9 C 0,0 C 51 % 78 % 1025,8 hPa 0,0 l/m 0,0 km/h (0 Bft) NW 315 -2,5 C 0,9 C 0,0 km/h (0 Bft)
20.02.2020 03:09 16,8 C 1,1 C 0,0 C 51 % 78 % 1025,8 hPa 0,0 l/m 0,2 km/h (0 Bft) W-NW 292 -2,3 C 1,1 C 0,0 km/h (0 Bft)
20.02.2020 03:08 16,8 C 1,1 C 0,0 C 51 % 78 % 1025,8 hPa 0,0 l/m 0,2 km/h (0 Bft) W-NW 292 -2,3 C 1,1 C 0,0 km/h (0 Bft)
20.02.2020 03:07 16,8 C 1,2 C 0,0 C 51 % 78 % 1025,8 hPa 0,0 l/m 0,2 km/h (0 Bft) W 270 -2,2 C 1,2 C 0,0 km/h (0 Bft)
20.02.2020 03:06 16,8 C 1,2 C 0,1 C 51 % 78 % 1025,8 hPa 0,0 l/m 0,2 km/h (0 Bft) W 270 -2,2 C 1,2 C 0,0 km/h (0 Bft)
20.02.2020 03:05 16,8 C 1,5 C 0,1 C 51 % 78 % 1025,8 hPa 0,0 l/m 0,5 km/h (0 Bft) NW 315 -1,9 C 1,5 C 0,0 km/h (0 Bft)
20.02.2020 03:04 16,8 C 1,5 C 0,2 C 51 % 78 % 1025,8 hPa 0,0 l/m 0,5 km/h (0 Bft) NW 315 -1,9 C 1,5 C 0,0 km/h (0 Bft)
20.02.2020 03:03 16,8 C 1,5 C 0,2 C 50 % 78 % 1025,8 hPa 0,0 l/m 0,5 km/h (0 Bft) NW 315 -1,9 C 1,5 C 0,0 km/h (0 Bft)
20.02.2020 03:02 16,8 C 1,5 C 0,2 C 50 % 78 % 1025,8 hPa 0,0 l/m 0,5 km/h (0 Bft) NW 315 -1,9 C 1,5 C 0,0 km/h (0 Bft)
20.02.2020 03:01 16,9 C 1,5 C 0,2 C 50 % 78 % 1025,8 hPa 0,0 l/m 0,6 km/h (0 Bft) NW 315 -1,9 C 1,5 C 0,0 km/h (0 Bft)
20.02.2020 03:00 16,9 C 1,5 C 0,3 C 50 % 78 % 1025,8 hPa 0,0 l/m 0,6 km/h (0 Bft) NW 315 -1,9 C 1,5 C 0,0 km/h (0 Bft)
20.02.2020 02:59 16,9 C 1,7 C 0,3 C 50 % 78 % 1025,8 hPa 0,0 l/m 0,8 km/h (0 Bft) N-NW 337 -1,7 C 1,7 C 0,0 km/h (0 Bft)
20.02.2020 02:58 16,9 C 1,7 C 0,5 C 50 % 78 % 1025,8 hPa 0,0 l/m 0,8 km/h (0 Bft) N-NW 337 -1,7 C 1,7 C 0,0 km/h (0 Bft)
20.02.2020 02:57 16,9 C 1,7 C 0,5 C 50 % 78 % 1025,8 hPa 0,0 l/m 1,0 km/h (0 Bft) W 270 -1,7 C 1,7 C 0,0 km/h (0 Bft)
20.02.2020 02:56 16,9 C 1,7 C 0,3 C 50 % 78 % 1025,8 hPa 0,0 l/m 1,0 km/h (0 Bft) W 270 -1,7 C 1,7 C 0,0 km/h (0 Bft)
20.02.2020 02:55 16,9 C 1,7 C 0,3 C 50 % 78 % 1025,8 hPa 0,0 l/m 1,4 km/h (1 Bft) W-NW 292 -1,7 C 1,7 C 2,1 km/h (1 Bft)
20.02.2020 02:54 16,9 C 1,7 C 0,5 C 50 % 78 % 1025,8 hPa 0,0 l/m 1,4 km/h (1 Bft) W-NW 292 -1,7 C 1,7 C 2,1 km/h (1 Bft)
20.02.2020 02:53 16,9 C 1,7 C 0,5 C 50 % 78 % 1025,8 hPa 0,0 l/m 2,1 km/h (1 Bft) N-NW 337 -1,7 C 1,7 C 0,0 km/h (0 Bft)
20.02.2020 02:52 16,9 C 1,7 C 0,5 C 50 % 78 % 1025,8 hPa 0,0 l/m 2,1 km/h (1 Bft) N-NW 337 -1,7 C 1,7 C 0,0 km/h (0 Bft)
20.02.2020 02:51 16,9 C 1,8 C 0,5 C 50 % 78 % 1025,7 hPa 0,0 l/m 2,3 km/h (1 Bft) NW 315 -1,6 C 1,8 C 3,1 km/h (1 Bft)
20.02.2020 02:50 16,9 C 1,8 C 0,5 C 50 % 78 % 1025,7 hPa 0,0 l/m 2,3 km/h (1 Bft) NW 315 -1,6 C 1,8 C 3,1 km/h (1 Bft)
20.02.2020 02:49 16,9 C 1,8 C 0,5 C 50 % 78 % 1025,7 hPa 0,0 l/m 2,7 km/h (1 Bft) W-NW 292 -1,6 C 1,8 C 2,9 km/h (1 Bft)
20.02.2020 02:48 16,9 C 1,8 C 0,6 C 50 % 78 % 1025,7 hPa 0,0 l/m 2,7 km/h (1 Bft) W-NW 292 -1,6 C 1,8 C 2,9 km/h (1 Bft)
20.02.2020 02:47 16,9 C 1,9 C 0,6 C 50 % 78 % 1025,7 hPa 0,0 l/m 3,2 km/h (1 Bft) NW 315 -1,5 C 1,9 C 5,9 km/h (2 Bft)
20.02.2020 02:46 16,9 C 1,9 C 0,7 C 50 % 78 % 1025,7 hPa 0,0 l/m 3,2 km/h (1 Bft) NW 315 -1,5 C 1,9 C 5,9 km/h (2 Bft)
20.02.2020 02:45 16,9 C 1,9 C 0,7 C 50 % 78 % 1025,7 hPa 0,0 l/m 3,4 km/h (1 Bft) NW 315 -1,5 C 1,9 C 5,6 km/h (1 Bft)
20.02.2020 02:44 16,9 C 1,9 C 0,7 C 50 % 78 % 1025,7 hPa 0,0 l/m 3,4 km/h (1 Bft) NW 315 -1,5 C 1,9 C 5,6 km/h (1 Bft)
20.02.2020 02:43 16,9 C 2,0 C 0,7 C 50 % 78 % 1025,7 hPa 0,0 l/m 3,7 km/h (1 Bft) W-NW 292 -1,4 C 2,0 C 3,3 km/h (1 Bft)
20.02.2020 02:42 16,9 C 2,0 C 0,7 C 50 % 78 % 1025,7 hPa 0,0 l/m 3,7 km/h (1 Bft) W-NW 292 -1,4 C 2,0 C 3,3 km/h (1 Bft)
20.02.2020 02:41 16,9 C 2,0 C 0,7 C 50 % 78 % 1025,7 hPa 0,0 l/m 3,7 km/h (1 Bft) W 270 -1,4 C 2,0 C 6,1 km/h (2 Bft)
20.02.2020 02:40 16,9 C 2,0 C 0,8 C 50 % 78 % 1025,7 hPa 0,0 l/m 3,7 km/h (1 Bft) W 270 -1,4 C 2,0 C 6,1 km/h (2 Bft)
20.02.2020 02:39 17,0 C 2,0 C 0,8 C 50 % 78 % 1025,7 hPa 0,0 l/m 3,9 km/h (1 Bft) NW 315 -1,4 C 2,0 C 4,0 km/h (1 Bft)
20.02.2020 02:38 17,0 C 2,0 C 0,8 C 50 % 78 % 1025,7 hPa 0,0 l/m 3,9 km/h (1 Bft) NW 315 -1,4 C 2,0 C 4,0 km/h (1 Bft)
20.02.2020 02:37 17,0 C 2,1 C 0,8 C 50 % 78 % 1025,7 hPa 0,0 l/m 4,0 km/h (1 Bft)